Alliance, NE

7:07 AM MST on February 24, 2018 (GMT -0700)
Alliance Municipal

Weather History for KAIA - March, 2014

Change the Weather History Date:

Tuesday, March 4, 2014

  Actual Average Record
Temperature  
Mean Temperature 37 °F 32 °F  
Max Temperature 48 °F 47 °F 76 °F (2009)
Min Temperature 25 °F 18 °F -10 °F (1960)
Degree Days  
Heating Degree Days 28 33  
Month to date heating degree days 197 133  
Since 1 July heating degree days 5761 5537  
Cooling Degree Days 0 0  
Month to date cooling degree days 0 0  
Year to date cooling degree days 0 0  
Moisture  
Dew Point 30 °F    
Average Humidity 79    
Maximum Humidity 92    
Minimum Humidity 65    
Precipitation  
Precipitation 0.00 in 0.01 in 0.29 in (1980)
Month to date precipitation T 0.03  
Year to date precipitation 0.33 0.59  
Sea Level Pressure  
Sea Level Pressure 29.93 in    
Wind  
Wind Speed 7 mph (NNW)    
Max Wind Speed 22 mph    
Max Gust Speed 25 mph    
Visibility 10 miles    
Events      
T = Trace of Precipitation, MM = Missing Value Source: NWS Daily Summary

Daily Weather History Graph

Daily Weather History Graph

Search for Another Location

Airport or City:

Trip Planner

Search our weather history database for the weather conditions in past years. The results will help you decide how hot, cold, wet, or windy it might be!

Date:

Astronomy

Mar. 04, 2014 Rise Set
Actual Time 6:21 AM MST 5:45 PM MST
Civil Twilight 5:53 AM MST 6:12 PM MST
Nautical Twilight 5:21 AM MST 6:45 PM MST
Astronomical Twilight 4:48 AM MST 7:17 PM MST
Moon 8:04 AM MST (3/4) 9:59 PM MST (3/4)
Length of Visible Light 12h 19m
Length of Day
11h 23m
Waxing Crescent, 15% of the Moon is Illuminated
Mar 4
Waxing Crescent
Mar 8
First Quarter
Mar 16
Full
Mar 23
Last Quarter
Mar 30
New

Hourly Weather History & Observations

Time (MST) Temp. Windchill Dew Point Humidity Pressure Visibility Wind Dir Wind Speed Gust Speed Precip Events Conditions
12:53 AM 30.0 °F - 26.1 °F 85% 29.92 in 10.0 mi Calm Calm - N/A   Clear
1:53 AM 30.9 °F 22.2 °F 27.0 °F 85% 29.88 in 10.0 mi South 10.4 mph - N/A   Scattered Clouds
2:53 AM 30.0 °F - 27.0 °F 88% 29.86 in 10.0 mi Calm Calm - N/A   Clear
3:53 AM 28.0 °F 22.8 °F 26.1 °F 92% 29.86 in 10.0 mi West 4.6 mph - N/A   Clear
4:53 AM 27.0 °F 20.5 °F 24.1 °F 89% 29.86 in 10.0 mi West 5.8 mph - N/A   Clear
5:53 AM 27.0 °F - 24.1 °F 89% 29.88 in 10.0 mi Calm Calm - N/A   Clear
6:53 AM 27.0 °F 23.0 °F 24.1 °F 89% 29.88 in 10.0 mi NW 3.5 mph - N/A   Clear
7:53 AM 30.0 °F - 27.0 °F 88% 29.87 in 10.0 mi Calm Calm - N/A   Clear
8:53 AM 37.9 °F - 30.0 °F 73% 29.86 in 10.0 mi Calm Calm - N/A   Clear
9:53 AM 46.0 °F 41.0 °F 35.1 °F 66% 29.83 in 10.0 mi West 10.4 mph - N/A   Clear
10:53 AM 45.0 °F 39.3 °F 35.1 °F 68% 29.85 in 10.0 mi West 11.5 mph - N/A   Clear
11:53 AM 46.0 °F 39.6 °F 35.1 °F 66% 29.84 in 10.0 mi West 15.0 mph - N/A   Clear
12:53 PM 46.0 °F 39.0 °F 35.1 °F 66% 29.83 in 10.0 mi WNW 17.3 mph - N/A   Clear
1:53 PM 45.0 °F 38.2 °F 34.0 °F 65% 29.86 in 10.0 mi NNW 15.0 mph - N/A   Clear
2:53 PM 46.0 °F 39.6 °F 35.1 °F 66% 29.86 in 10.0 mi NNW 15.0 mph - N/A   Scattered Clouds
3:53 PM 43.0 °F 39.5 °F 35.1 °F 74% 29.90 in 10.0 mi NE 5.8 mph - N/A   Partly Cloudy
4:53 PM 39.0 °F 34.8 °F 34.0 °F 82% 29.94 in 10.0 mi NE 5.8 mph - N/A   Clear
5:53 PM 36.0 °F 28.5 °F 32.0 °F 86% 29.97 in 10.0 mi NNE 10.4 mph - N/A   Clear
6:53 PM 33.1 °F 25.5 °F 28.9 °F 85% 30.02 in 10.0 mi NE 9.2 mph - N/A   Clear
7:53 PM 32.0 °F 25.6 °F 28.0 °F 85% 30.04 in 10.0 mi NNE 6.9 mph - N/A   Clear
8:40 PM 30.9 °F 21.7 °F 28.0 °F 89% 30.00 in 10.0 mi NNE 11.5 mph - N/A   Mostly Cloudy
8:53 PM 30.9 °F 21.7 °F 28.0 °F 89% 30.06 in 10.0 mi NNE 11.5 mph - N/A   Overcast
9:11 PM 30.0 °F 21.1 °F 28.0 °F 92% 30.01 in 10.0 mi NNE 10.4 mph - N/A   Overcast
9:53 PM 30.0 °F 23.2 °F 27.0 °F 88% 30.06 in 10.0 mi North 6.9 mph - N/A   Overcast
10:53 PM 30.0 °F 23.2 °F 27.0 °F 88% 30.08 in 10.0 mi North 6.9 mph - N/A   Overcast
11:53 PM 30.0 °F 24.1 °F 27.0 °F 88% 30.09 in 10.0 mi NNW 5.8 mph - N/A   Overcast